Location: Rockford
(42.2710°N, 89.0940°W)
Time: 08:04:31
(UTC-05:00)

SPOT 5 - Visible Passes

Search period start: 28 August 2014 00:00
Search period end: 07 September 2014 00:00
Orbit: 824 x 826 km, 98.6° (Epoch: 26 August)

Date Brightness Start Highest point End Pass type
(mag) Time Alt. Az. Time Alt. Az. Time Alt. Az.
28 Aug 5.0 20:21:11 10° E 20:23:35 13° ENE 20:25:59 10° NNE visible
28 Aug 3.0 22:02:01 62° SSE 22:02:59 89° ENE 22:08:23 10° NNW visible
28 Aug 5.7 23:43:29 11° W 23:43:52 11° W 23:45:32 10° WNW visible
29 Aug 3.2 21:42:33 49° ESE 21:43:40 61° ENE 21:48:58 10° N visible
29 Aug 5.2 23:24:01 18° W 23:24:16 18° W 23:27:49 10° NW visible
30 Aug 3.7 21:23:05 35° ESE 21:24:25 41° ENE 21:29:26 10° N visible
30 Aug 4.7 23:04:33 26° W 23:04:44 26° W 23:09:12 10° NW visible
31 Aug 4.2 21:03:36 24° E 21:05:14 29° ENE 21:09:46 10° N visible
31 Aug 4.1 22:45:04 38° WSW 22:45:15 39° W 22:50:16 10° NNW visible
01 Sep 4.6 20:44:08 17° E 20:46:05 20° ENE 20:49:55 10° NNE visible
01 Sep 3.5 22:25:36 57° WSW 22:25:49 58° W 22:31:08 10° NNW visible
02 Sep 5.0 20:24:40 11° E 20:27:00 14° ENE 20:29:43 10° NNE visible
02 Sep 3.0 22:06:08 79° SSW 22:06:27 85° WSW 22:11:51 10° NNW visible
02 Sep 5.8 23:47:36 10° W 23:47:36 10° W 23:48:07 10° W visible
03 Sep 3.1 21:46:40 63° ESE 21:47:08 66° ENE 21:52:28 10° N visible
03 Sep 5.4 23:28:08 16° W 23:28:08 16° W 23:31:04 10° NW visible
04 Sep 3.5 21:27:12 42° E 21:27:52 45° ENE 21:32:57 10° N visible
04 Sep 4.9 23:08:40 24° W 23:08:40 24° W 23:12:33 10° NW visible
05 Sep 4.0 21:07:44 29° E 21:08:40 31° ENE 21:13:19 10° N visible
05 Sep 4.4 22:49:12 35° W 22:49:12 35° W 22:53:40 10° NNW visible
06 Sep 4.5 20:48:16 20° E 20:49:31 22° ENE 20:53:31 10° NNE visible
06 Sep 3.7 22:29:44 52° W 22:29:44 52° W 22:34:34 10° NNW visible
